CAPE
76 23 50 50 22 7 9 0 86 55 8 0 0 0 0 0 0 0 0 0 0 0 0 0 0 0 0 0 0 0 0 0 0 0 0 0 0 0 0 0 0 0 0 0 0
90 51 2 58 20 10 12 10 86 54 19 0 0 0 0 0 0 0 0 0 0 0 0 0 0 0 0 0 0 0 0 0 0 0 0 0 0 0 0 0 0 0 0 0 0
49 63 1 122 23 15 16 0 67 64 37 0 0 0 0 0 0 0 0 0 0 0 0 0 0 0 0 0 0 0 0 0 0 0 0 0 0 0 0 0 0 0 0 0 0
9 36 32 73 16 21 14 3 62 74 53 20 0 0 6 0 0 0 0 0 0 0 0 0 0 0 0 0 0 0 0 0 0 0 0 0 0 0 0 0 0 0 0 0 0
2 55 26 66 19 6 27 25 65 90 56 66 46 18 2 1 0 0 0 0 0 0 0 0 0 0 0 0 0 0 0 0 0 0 0 0 0 0 0 0 0 0 0 0 0
0 52 26 90 28 11 34 41 20 98 56 59 20 1 4 5 0 0 0 0 0 0 0 0 0 0 0 0 0 0 0 0 0 0 0 0 0 0 0 0 0 0 0 0 0
1 31 65 69 25 8 17 47 26 125 52 40 1 0 0 0 0 0 0 0 0 0 0 0 0 0 0 0 0 0 0 0 0 0 0 0 0 0 0 0 0 0 0 0 0
6 11 27 52 31 15 11 71 139 75 37 17 0 0 0 0 0 0 0 0 0 0 0 0 0 0 0 0 0 0 0 0 0 0 0 0 0 0 0 0 0 0 0 0 0
42 37 65 31 38 17 61 96 114 34 0 0 0 1 5 0 0 0 0 0 0 0 0 0 0 0 0 0 0 0 0 0 0 0 0 0 0 0 0 0 0 0 0 0 0
1 86 57 6 27 27 93 163 104 7 0 0 0 6 0 0 0 0 0 0 0 0 0 0 0 0 0 0 0 0 0 0 0 0 0 0 0 0 0 0 0 0 0 0 0
2 28 32 33 29 28 133 190 55 3 1 0 0 0 0 0 0 0 0 0 0 0 0 0 0 0 0 0 0 0 0 0 0 0 0 0 0 0 0 0 0 0 0 0 0
2 1 26 39 18 43 81 59 27 0 1 0 0 0 0 0 0 0 0 0 0 0 0 0 0 0 0 0 0 0 0 0 0 0 0 0 0 0 0 0 0 0 0 0 0
1 1 33 17 23 101 61 14 0 0 0 0 0 0 0 0 0 0 0 0 0 0 0 0 0 0 0 0 0 0 0 0 0 0 0 0 0 0 0 0 0 0 0 0 0
2 1 1 17 55 83 32 0 0 0 0 0 0 0 0 0 0 0 0 0 0 0 0 0 0 0 0 0 0 0 0 0 0 0 0 0 0 0 0 0 0 0 0 0 0
5 0 1 22 76 109 0 0 0 0 0 0 0 0 0 0 0 0 0 0 0 0 0 0 0 0 0 0 0 0 0 0 0 0 0 0 0 0 0 0 0 0 0 0 0
26 0 1 0 12 9 1 0 0 0 0 1 0 0 0 0 0 0 0 0 0 0 0 0 0 0 0 0 0 0 0 0 0 0 0 0 0 0 0 0 0 0 0 0 0
23 10 7 4 1 0 0 0 0 0 0 0 0 0 0 0 0 0 0 0 0 0 0 0 0 0 0 0 0 0 0 0 0 0 0 0 0 0 0 0 0 0 0 0 0
6 32 5 0 2 0 0 2 0 0 0 0 0 0 0 0 0 0 0 0 0 0 0 0 0 0 0 0 0 0 0 0 0 0 0 0 0 0 0 0 0 0 0 0 0
3 12 3 0 1 0 1 0 0 0 0 0 0 0 0 0 0 0 0 0 0 0 0 0 0 0 0 0 0 0 0 0 0 0 0 0 0 0 0 0 0 0 0 0 0
2 21 8 14 2 2 2 0 0 0 0 0 0 0 0 0 0 0 0 0 0 0 0 0 0 0 0 0 0 0 0 0 0 0 0 0 0 0 0 0 0 0 0 0 0
6 17 24 5 13 5 0 0 0 0 0 0 0 0 0 0 0 0 0 0 0 0 0 0 0 0 0 0 0 0 0 0 0 0 0 0 0 0 0 0 0 0 0 0 0
0 4 9 12 0 0 0 0 0 0 0 0 0 0 0 0 0 0 0 0 0 0 0 0 0 0 0 0 0 0 0 0 0 0 0 0 0 0 0 0 0 0 0 0 0
2 1 3 9 0 0 0 0 0 0 0 0 0 0 0 0 0 0 0 0 0 0 0 0 0 0 0 0 0 0 0 0 0 0 0 0 0 0 0 0 0 0 0 0 0
0 4 22 4 2 0 0 0 0 0 0 0 0 0 0 0 0 0 0 0 0 0 0 0 0 0 0 0 0 0 0 0 0 0 0 0 0 0 0 0 0 0 0 0 0
0 0 1 0 0 0 0 0 0 0 0 0 0 0 0 0 0 0 0 0 0 0 0 0 0 0 0 0 0 0 0 0 0 0 0 0 0 0 0 0 0 0 0 0 0
0 0 0 0 0 0 0 0 0 0 0 0 0 0 0 0 0 0 0 0 0 0 0 0 0 0 0 0 0 0 0 0 0 0 0 0 0 0 0 0 0 0 0 0 0
1 1 0 1 0 0 0 0 0 0 0 0 0 0 0 0 0 0 0 0 0 0 0 0 0 0 0 0 0 0 0 0 0 0 0 0 0 0 0 0 0 0 0 0 0
CIN
-3 -6 -0 -0 -13 -22 -23 -5 -1 -4 -13 -0 -0 -0 -0 -0 -0 -0 -0 -0 -0 -0 -0 -0 -0 -0 -0 -0 -0 -0 -0 -0 -0 -0 -0 -0 -0 -0 -0 -0 -0 -0 -0 -0 -0
-0 -0 -21 -0 -10 -17 -25 -21 -2 -12 -19 -0 -0 -0 -0 -0 -0 -0 -0 -0 -0 -0 -0 -0 -0 -0 -0 -0 -0 -0 -0 -0 -0 -0 -0 -0 -0 -0 -0 -0 -0 -0 -0 -0 -0
-3 -2 -6 -0 -6 -14 -27 -32 -3 -20 -21 -0 -0 -0 -0 -0 -0 -0 -0 -0 -0 -0 -0 -0 -0 -0 -0 -0 -0 -0 -0 -0 -0 -0 -0 -0 -0 -0 -0 -0 -0 -0 -0 -0 -0
-28 -10 -20 -2 -5 -18 -24 -24 -6 -16 -9 -28 -0 -0 -0 -0 -0 -0 -0 -0 -0 -0 -0 -0 -0 -0 -0 -0 -0 -0 -0 -0 -0 -0 -0 -0 -0 -0 -0 -0 -0 -0 -0 -0 -0
-15 -7 -53 -1 -1 -17 -18 -25 -13 -14 -7 -6 -7 -25 -26 -0 -0 -0 -0 -0 -0 -0 -0 -0 -0 -0 -0 -0 -0 -0 -0 -0 -0 -0 -0 -0 -0 -0 -0 -0 -0 -0 -0 -0 -0
-0 -70 -6 -0 -1 -12 -16 -23 -23 -10 -14 -16 -22 -35 -43 -0 -0 -0 -0 -0 -0 -0 -0 -0 -0 -0 -0 -0 -0 -0 -0 -0 -0 -0 -0 -0 -0 -0 -0 -0 -0 -0 -0 -0 -0
-0 -8 -1 -0 -1 -7 -18 -21 -11 -15 -21 -16 -35 -0 -0 -0 -0 -0 -0 -0 -0 -0 -0 -0 -0 -0 -0 -0 -0 -0 -0 -0 -0 -0 -0 -0 -0 -0 -0 -0 -0 -0 -0 -0 -0
-19 -10 -22 -0 -0 -10 -22 -18 -0 -35 -34 -37 -0 -0 -3 -0 -0 -0 -0 -0 -0 -0 -0 -0 -0 -0 -0 -0 -0 -0 -0 -0 -0 -0 -0 -0 -0 -0 -0 -0 -0 -0 -0 -0 -0
-2 -8 -7 -1 -0 -3 -4 -6 -0 -21 -0 -0 -0 -15 -4 -0 -0 -0 -0 -0 -0 -0 -0 -0 -0 -0 -0 -0 -0 -0 -0 -0 -0 -0 -0 -0 -0 -0 -0 -0 -0 -0 -0 -0 -0
-0 -1 -0 -26 -0 -1 -1 -0 -5 -80 -0 -0 -0 -25 -0 -0 -0 -0 -0 -0 -0 -0 -0 -0 -0 -0 -0 -0 -0 -0 -0 -0 -0 -0 -0 -0 -0 -0 -0 -0 -0 -0 -0 -0 -0
-3 -1 -2 -2 -17 -2 -0 -0 -23 -0 -0 -0 -0 -0 -0 -0 -0 -0 -0 -0 -0 -0 -0 -0 -0 -0 -0 -0 -0 -0 -0 -0 -0 -0 -0 -0 -0 -0 -0 -0 -0 -0 -0 -0 -0
-2 -0 -0 -0 -5 -1 -0 -1 -12 -0 -0 -0 -0 -0 -0 -0 -0 -0 -0 -0 -0 -0 -0 -0 -0 -0 -0 -0 -0 -0 -0 -0 -0 -0 -0 -0 -0 -0 -0 -0 -0 -0 -0 -0 -0
-15 -0 -6 -2 -7 -0 -0 -1 -0 -0 -0 -0 -0 -0 -0 -0 -0 -0 -0 -0 -0 -0 -0 -0 -0 -0 -0 -0 -0 -0 -0 -0 -0 -0 -0 -0 -0 -0 -0 -0 -0 -0 -0 -0 -0
-16 -5 -0 -1 -0 -0 -3 -0 -0 -0 -0 -0 -0 -0 -0 -0 -0 -0 -0 -0 -0 -0 -0 -0 -0 -0 -0 -0 -0 -0 -0 -0 -0 -0 -0 -0 -0 -0 -0 -0 -0 -0 -0 -0 -0
-2 -0 -0 -0 -2 -0 -0 -0 -0 -0 -0 -0 -0 -0 -0 -0 -0 -0 -0 -0 -0 -0 -0 -0 -0 -0 -0 -0 -0 -0 -0 -0 -0 -0 -0 -0 -0 -0 -0 -0 -0 -0 -0 -0 -0
-0 -0 -3 -0 -14 -4 -0 -0 -0 -0 -0 -0 -0 -0 -0 -0 -0 -0 -0 -0 -0 -0 -0 -0 -0 -0 -0 -0 -0 -0 -0 -0 -0 -0 -0 -0 -0 -0 -0 -0 -0 -0 -0 -0 -0
-0 -2 -2 -0 -0 -0 -0 -0 -0 -0 -0 -0 -0 -0 -0 -0 -0 -0 -0 -0 -0 -0 -0 -0 -0 -0 -0 -0 -0 -0 -0 -0 -0 -0 -0 -0 -0 -0 -0 -0 -0 -0 -0 -0 -0
-8 -0 -2 -0 -0 -0 -0 -0 -0 -0 -0 -0 -0 -0 -0 -0 -0 -0 -0 -0 -0 -0 -0 -0 -0 -0 -0 -0 -0 -0 -0 -0 -0 -0 -0 -0 -0 -0 -0 -0 -0 -0 -0 -0 -0
-6 -2 -1 -0 -0 -0 -0 -1 -0 -0 -0 -0 -0 -0 -0 -0 -0 -0 -0 -0 -0 -0 -0 -0 -0 -0 -0 -0 -0 -0 -0 -0 -0 -0 -0 -0 -0 -0 -0 -0 -0 -0 -0 -0 -0
-2 -0 -0 -2 -0 -0 -0 -0 -0 -0 -0 -0 -0 -0 -0 -0 -0 -0 -0 -0 -0 -0 -0 -0 -0 -0 -0 -0 -0 -0 -0 -0 -0 -0 -0 -0 -0 -0 -0 -0 -0 -0 -0 -0 -0
-8 -0 -0 -2 -2 -0 -0 -0 -0 -0 -0 -0 -0 -0 -0 -0 -0 -0 -0 -0 -0 -0 -0 -0 -0 -0 -0 -0 -0 -0 -0 -0 -0 -0 -0 -0 -0 -0 -0 -0 -0 -0 -0 -0 -0
-19 -0 -2 -2 -0 -0 -0 -0 -0 -0 -0 -0 -0 -0 -0 -0 -0 -0 -0 -0 -0 -0 -0 -0 -0 -0 -0 -0 -0 -0 -0 -0 -0 -0 -0 -0 -0 -0 -0 -0 -0 -0 -0 -0 -0
-8 -26 -23 -0 -0 -0 -0 -0 -0 -0 -0 -0 -0 -0 -0 -0 -0 -0 -0 -0 -0 -0 -0 -0 -0 -0 -0 -0 -0 -0 -0 -0 -0 -0 -0 -0 -0 -0 -0 -0 -0 -0 -0 -0 -0
-0 -7 -22 -0 -0 -0 -0 -0 -0 -0 -0 -0 -0 -0 -0 -0 -0 -0 -0 -0 -0 -0 -0 -0 -0 -0 -0 -0 -0 -0 -0 -0 -0 -0 -0 -0 -0 -0 -0 -0 -0 -0 -0 -0 -0
-0 -46 -1 -0 -0 -0 -0 -0 -0 -0 -0 -0 -0 -0 -0 -0 -0 -0 -0 -0 -0 -0 -0 -0 -0 -0 -0 -0 -0 -0 -0 -0 -0 -0 -0 -0 -0 -0 -0 -0 -0 -0 -0 -0 -0
-0 -0 -0 -0 -0 -0 -0 -0 -0 -0 -0 -0 -0 -0 -0 -0 -0 -0 -0 -0 -0 -0 -0 -0 -0 -0 -0 -0 -0 -0 -0 -0 -0 -0 -0 -0 -0 -0 -0 -0 -0 -0 -0 -0 -0
-0 -0 -0 -0 -0 -0 -0 -0 -0 -0 -0 -0 -0 -0 -0 -0 -0 -0 -0 -0 -0 -0 -0 -0 -0 -0 -0 -0 -0 -0 -0 -0 -0 -0 -0 -0 -0 -0 -0 -0 -0 -0 -0 -0 -0
Wind_Speed
52 50 55 47 48 45 45 44 41 36 35 32 29 27 25 20 21 24 30 25 22 16 18 14 13 11 14 16 15 13 18 20 20 17 17 15 16 15 13 11 12 10 11 10 10
52 57 54 46 44 46 45 45 41 36 33 33 31 27 25 21 24 32 25 24 23 14 17 14 13 11 13 15 16 13 19 19 15 16 16 17 17 14 14 12 13 13 12 6 8
52 57 55 55 44 46 45 46 42 37 34 32 31 32 28 21 29 37 28 23 22 19 17 18 15 14 14 15 14 18 7 3 8 10 16 17 17 16 15 16 13 8 5 5 6
54 60 57 58 44 42 45 46 43 37 34 31 31 30 28 30 42 30 27 21 21 21 17 16 18 19 19 17 19 15 16 11 7 7 16 22 21 21 20 21 17 13 3 3 5
54 61 62 53 44 42 42 46 44 38 34 31 28 27 29 38 36 21 28 22 21 22 19 20 23 23 21 21 17 21 18 15 13 11 13 21 25 25 28 26 20 10 4 3 4
50 64 60 52 44 40 39 44 44 39 34 31 29 27 34 45 30 21 22 24 24 27 22 19 23 20 23 23 20 22 20 19 18 19 16 28 28 23 24 21 18 11 8 8 7
58 58 49 47 45 39 38 42 40 37 33 30 28 28 37 39 22 22 18 23 24 25 24 22 19 22 20 23 21 21 19 21 22 24 18 14 34 28 29 24 23 18 15 14 17
54 56 44 48 47 38 37 39 36 34 31 29 27 28 39 24 19 21 18 22 19 18 21 20 20 20 23 19 21 24 25 26 22 22 27 17 36 28 27 24 27 26 21 16 16
40 54 45 46 46 39 36 37 34 31 28 25 29 32 37 24 26 20 20 22 19 17 16 18 18 24 23 23 25 24 27 27 27 22 23 22 28 28 25 26 29 29 28 23 20
30 42 43 41 43 43 37 36 33 29 27 22 25 32 34 41 28 21 18 21 20 18 20 23 25 30 29 27 31 29 29 26 26 24 24 29 35 34 29 27 31 32 31 29 25
19 49 46 46 41 40 39 39 37 30 36 39 42 37 35 26 23 24 19 21 20 24 32 26 32 36 33 32 28 26 30 31 29 28 31 33 40 41 34 31 35 35 35 33 30
21 22 40 42 40 42 42 45 37 31 39 32 30 30 25 24 30 28 21 27 31 36 27 32 41 33 29 31 31 31 30 29 30 31 32 38 44 46 39 36 21 33 34 37 33
25 20 33 39 37 42 46 34 30 34 29 27 29 30 27 25 31 31 26 26 33 34 35 37 31 26 29 30 33 33 33 30 31 30 30 36 48 44 44 37 32 26 30 33 36
25 25 27 38 36 43 40 32 31 31 33 35 32 30 26 22 29 25 23 24 28 38 32 36 31 29 33 35 31 37 29 30 31 33 38 29 45 36 34 38 37 42 33 30 35
24 25 28 43 37 47 38 39 33 32 43 27 28 24 26 31 25 31 21 23 34 30 30 38 32 33 36 34 28 35 24 30 34 36 38 38 39 40 33 39 35 34 33 33 25
27 27 27 39 32 40 37 35 34 43 44 29 27 31 31 27 28 27 25 19 20 26 30 31 25 29 34 28 26 21 24 26 29 33 46 40 36 46 38 37 36 34 34 29 30
25 26 31 32 32 38 37 40 41 43 26 29 35 34 34 32 29 32 33 32 34 36 38 34 30 27 21 28 24 25 29 37 38 40 46 32 34 47 32 32 34 34 33 32 28
25 28 33 34 26 41 45 42 46 37 27 22 29 29 34 29 29 30 32 35 31 29 32 38 42 29 23 25 28 26 28 36 43 43 45 34 44 42 32 33 37 34 33 35 34
27 30 29 33 29 42 45 54 49 33 33 25 25 32 32 32 28 30 37 38 31 27 32 35 35 22 22 21 18 27 37 26 34 34 41 40 42 42 42 40 35 33 35 36 31
26 30 33 32 31 40 48 53 40 30 29 28 31 28 34 37 32 35 36 34 32 28 22 22 31 24 23 21 24 25 22 31 32 43 48 45 45 46 32 34 33 35 32 30 37
27 32 27 29 32 39 59 45 38 30 29 32 31 32 31 33 31 35 35 26 29 28 27 20 23 24 21 28 27 25 28 27 28 34 45 51 49 34 38 34 35 36 34 35 37
27 36 24 24 38 40 50 43 34 35 32 29 27 28 28 29 33 32 33 32 26 28 30 28 24 27 27 29 30 32 30 30 36 41 39 42 53 27 25 25 25 29 31 32 36
28 32 24 25 41 44 44 40 38 35 35 30 31 32 32 32 34 44 47 35 23 24 29 28 30 29 29 32 31 33 32 32 34 33 40 44 47 30 35 46 36 37 39 34 31
29 37 32 30 33 38 43 42 44 41 37 32 30 28 28 35 36 41 35 33 30 26 23 24 31 32 36 31 25 33 34 35 37 43 44 43 44 48 38 35 35 33 32 32 32
27 34 33 32 35 38 39 43 43 43 36 32 33 33 31 32 35 34 31 26 24 25 26 26 28 30 32 29 26 28 30 33 37 39 40 44 42 46 40 42 45 42 40 38 38
29 31 28 32 26 37 43 47 43 41 37 40 34 33 34 31 29 27 21 26 25 23 25 28 31 31 31 29 30 34 33 32 33 35 37 41 47 38 41 43 45 48 43 43 40
20 22 27 30 29 34 38 41 51 40 38 42 36 33 35 31 25 22 22 19 19 20 23 26 28 23 27 29 32 41 33 32 30 32 28 37 37 39 47 47 47 46 40 43 43
Wind_Direction
249 247 239 231 227 227 226 226 225 224 224 222 222 225 226 229 237 235 236 247 249 249 245 252 269 274 276 269 283 287 278 275 268 272 278 282 279 291 303 318 306 326 341 342 90
247 238 238 227 225 224 224 223 223 221 223 220 219 220 228 230 237 236 245 248 243 245 240 239 248 260 275 275 269 273 275 277 285 277 281 284 278 288 292 299 300 295 303 357 103
248 238 233 229 223 222 222 220 222 219 220 220 218 223 226 232 238 238 240 246 242 239 246 247 244 258 270 272 268 264 287 300 311 310 285 282 283 287 289 286 293 317 344 84 117
246 234 233 230 217 218 221 220 220 216 217 217 216 217 218 226 232 240 234 241 241 237 241 240 247 252 260 265 265 281 281 287 303 321 287 277 281 277 276 280 296 292 310 120 144
249 230 226 227 217 215 219 217 218 216 215 213 212 210 219 229 233 249 231 230 238 240 236 244 246 252 254 259 270 271 279 280 285 295 300 284 279 276 269 274 286 294 280 195 211
245 222 223 221 217 212 214 214 216 212 210 210 210 209 226 229 236 249 232 229 237 237 239 243 249 256 257 263 264 274 275 279 280 278 291 277 281 283 277 282 278 283 273 263 248
240 219 217 217 212 210 209 212 212 206 207 207 205 217 228 229 244 245 237 233 239 241 240 249 253 251 259 262 270 271 275 280 278 277 288 302 276 272 273 277 270 274 277 272 265
217 214 216 212 211 204 205 203 199 201 200 201 205 222 230 238 246 238 236 232 238 248 245 250 253 253 259 265 271 267 272 271 279 277 276 287 267 272 276 278 269 267 271 272 265
220 214 212 209 211 205 202 190 190 190 191 193 213 226 230 231 235 233 226 220 230 245 249 250 248 252 253 254 264 267 268 268 275 277 278 274 281 276 278 274 269 265 266 268 267
233 214 209 204 207 203 192 184 185 182 190 202 221 225 233 228 226 229 234 214 228 232 243 246 248 248 249 245 254 262 264 272 270 278 276 274 267 269 274 275 269 266 264 264 265
247 210 204 205 201 199 184 187 194 207 199 216 216 226 222 223 222 230 224 216 228 234 237 244 241 240 245 251 259 263 266 268 274 276 277 274 268 266 272 276 268 265 263 263 263
239 232 201 202 201 197 188 203 194 206 204 222 211 230 230 217 224 221 212 225 226 230 237 243 244 249 250 250 255 260 265 270 276 277 276 275 270 263 270 270 256 266 265 261 262
236 238 204 199 195 191 195 200 189 189 207 214 217 221 216 221 224 216 214 230 227 231 235 242 253 250 249 252 252 258 261 267 274 279 281 280 273 270 266 270 269 262 266 268 262
221 223 213 197 192 191 205 192 188 204 223 221 219 224 220 219 226 220 221 226 236 232 235 247 251 244 247 251 254 257 262 267 273 277 273 281 275 275 274 269 265 262 263 265 265
228 226 217 202 202 196 196 186 195 199 217 209 215 212 215 220 212 219 224 239 229 232 236 243 244 243 248 252 254 261 266 267 268 273 276 272 276 274 277 271 271 265 263 265 259
229 225 218 207 208 197 183 185 201 220 233 221 215 209 203 224 223 207 224 244 237 237 245 251 257 248 254 253 251 258 266 272 272 271 269 269 270 272 272 277 278 276 266 261 263
230 221 215 213 209 180 174 186 202 218 216 218 210 208 207 219 222 206 217 224 230 234 239 246 250 256 256 252 252 251 251 262 264 264 267 277 266 267 279 283 283 281 277 269 265
232 219 217 209 216 182 194 197 210 210 211 214 202 195 216 209 220 216 218 227 234 238 238 240 247 247 249 253 252 246 250 258 263 266 269 273 267 268 283 283 281 284 285 280 275
228 218 221 211 214 197 198 208 218 213 210 195 186 200 221 215 222 219 223 226 229 232 244 244 250 261 252 251 242 253 254 262 270 274 271 270 274 279 278 281 286 285 283 280 283
224 218 216 214 216 205 205 212 218 216 202 191 209 210 217 211 222 223 223 232 234 230 245 253 253 264 254 250 255 253 249 256 262 263 266 269 271 269 284 289 285 283 288 289 279
222 212 218 216 214 210 211 213 217 211 196 211 217 220 222 214 224 222 227 249 225 226 237 247 259 263 249 251 247 255 250 261 264 264 268 270 271 277 283 286 286 287 289 288 286
223 210 220 213 210 215 207 212 214 210 218 223 223 227 217 212 227 225 231 233 225 223 227 243 258 260 256 263 258 254 256 247 262 266 268 273 272 279 292 299 300 298 298 295 296
223 215 222 218 214 212 210 213 216 210 217 222 225 230 224 222 230 229 228 235 225 221 226 235 252 257 264 266 263 257 256 255 260 273 267 269 274 289 279 277 285 290 296 300 303
220 214 217 226 224 212 207 211 212 214 217 221 221 221 218 224 230 229 234 237 234 233 238 232 251 248 255 271 264 259 258 260 260 264 268 270 275 273 280 285 285 287 291 297 302
226 218 217 222 218 213 211 210 209 211 222 220 224 220 220 226 226 235 232 237 237 235 239 241 244 259 265 269 272 271 262 259 258 261 266 271 270 275 275 276 277 281 287 289 293
225 221 225 227 224 215 214 213 210 212 215 215 219 216 222 226 224 229 230 239 244 241 238 247 255 258 266 270 269 271 270 264 260 263 268 271 277 276 279 277 277 275 280 282 285
244 235 228 224 221 218 218 217 215 218 225 222 221 220 227 235 240 246 249 245 251 235 234 235 249 258 257 267 271 274 259 265 267 266 266 271 243 279 271 271 273 278 283 281 280